Regional Weather Roundup
Issued by NWS

Home | Current Version | Previous Version | Text Only | Print | Product List | Glossary Off
Versions: 1 2 3 4 5 6 7 8 9 10 11 12 13 14 15 16 17 18 19 20 21 22 23 24 25 26 27 28 29 30 31 32 33 34 35 36 37 38 39 40 41 42 43 44 45 46 47 48 49 50

000
ASUS45 KBOU 200007
RWRCO

WEATHER ROUNDUP FOR COLORADO
NATIONAL WEATHER SERVICE DENVER/BOULDER CO
500 PM MST FRI DEC 19 2014

NOTE: "FAIR" INDICATES FEW OR NO CLOUDS BELOW 12000 FEET WITH NO
SIGNIFICANT WEATHER AND/OR OBSTRUCTIONS TO VISIBILITY.

COZ001>005-013-030-031-200100-
...NORTHWEST COLORADO...

CITY           SKY/WX    TMP DP  RH WIND       PRES   REMARKS
CRAIG          PTCLDY    18  15  88 CALM      30.19S
HAYDEN         PTCLDY    21  16  79 CALM      30.18S
MEEKER         MOCLDY    17  14  88 NE6       30.19R WCI   9
MOUNT WERNER   NOT AVBL
STEAMBOAT SPGS PTCLDY    23  19  84 CALM      30.18S
WALDEN         PTCLDY    19  12  73 S7        30.11S WCI  10
$$

COZ006>008-011-200100-
...WEST CENTRAL VALLEYS...

CITY           SKY/WX    TMP DP  RH WIND       PRES   REMARKS
GRAND JUNCTION CLOUDY    34  29  82 NW7       30.21R WCI  28
MONTROSE       PTCLDY    36  23  59 N5        30.20R
EAGLE          MOCLDY    30  21  69 CALM      30.19R
RIFLE          MOCLDY    34  25  69 CALM      30.20S
DELTA          PTCLDY    39  28  63 N6        30.21S
NUCLA          PTCLDY    34  27  75 W5        30.23R WCI  30
$$

COZ017>023-064>068-200100-
...SOUTHWEST COLORADO...

CITY           SKY/WX    TMP DP  RH WIND       PRES   REMARKS
DURANGO        PTCLDY    33  23  66 W3        30.16F
CORTEZ         CLEAR     35  28  75 NW9       30.18R WCI  28
PAGOSA SPRINGS PTCLDY    30  19  61 CALM      30.17R
TELLURIDE      PTCLDY    24  13  62 SE5       30.17S WCI  19
WOLF CREEK PAS CLEAR     18   3  53 MISG      30.14R
$$

COZ009-010-012-014-032>034-037-058>063-200100-
...CENTRAL COLORADO...

CITY           SKY/WX    TMP DP  RH WIND       PRES   REMARKS
ASPEN          MOCLDY    24  14  65 CALM      30.15R
BUENA VISTA    PTCLDY    29   9  43 W9        30.09R WCI  21
COPPER MTN     PTCLDY    14   9  79 SW5       30.11S WCI   6
BERTHOUD PASS  CLOUDY     5   0  78 MISG      30.05S
COTTONWOOD PAS PTCLDY    28   7  40 NW6       30.08S WCI  22
GUNNISON       PTCLDY    28  16  59 N3        30.18S
KREMMLING      MOCLDY    25  18  74 CALM      30.17R
LEADVILLE      PTCLDY    15  10  80 N10       30.11R WCI   2
MONARCH PASS   CLOUDY    12   9  85 MISG      30.17F
SALIDA         PTCLDY    33  14  45 SW21G28   30.15S WCI  21
SUNLIGHT       CLOUDY   N/A N/A N/A CALM      30.15S
WILKERSON PASS PTCLDY    19   5  53 NW13G22   30.07R WCI   7
$$

COZ069>075-200100-
...SAN LUIS VALLEY/SANGRE DE CRISTO MOUNTAINS...

CITY           SKY/WX    TMP DP  RH WIND       PRES   REMARKS
ALAMOSA        CLEAR     25  14  63 E7        30.13S WCI  17
LA VETA PASS   CLEAR     19  10  68 MISG      30.07S
SAGUACHE       NOT AVBL
$$

COZ035-036-038>040-200100-
...NORTHERN COLORADO FRONT RANGE...

CITY           SKY/WX    TMP DP  RH WIND       PRES   REMARKS
DENVER INTL AP MOCLDY    34  18  52 S12       30.00S WCI  25
DMNS CITY PARK   N/A     42   9  25 SE3       30.00S
AURORA         MOCLDY    34  16  47 S7        30.01S WCI  27
FRONT RANGE AP NOT AVBL
ERIE MUNI ARPT   N/A     40  10  28 W7        30.00R
BOULDER MUN AP PTCLDY    43  12  28 SW7       29.99R
CENTENNIAL     MOCLDY    36  16  44 S5        30.01R
BROOMFIELD     PTCLDY   N/A N/A N/A MISG        N/A
FORT COLLINS   PTCLDY    37  10  32 E9        30.01R
LONGMONT       PTCLDY    40  13  34 CALM      30.02R
$$

COZ041-046-047-076>085-087-088-200100-
...PIKES PEAK/PALMER DIVIDE AND SOUTHERN FOOTHILLS...

CITY           SKY/WX    TMP DP  RH WIND       PRES   REMARKS
COLO. SPRINGS  PTCLDY    35  13  40 S8        30.03S WCI  29
A. F. ACADEMY  PTCLDY    33  12  40 S7        30.03R WCI  27
ELLICOTT       NOT AVBL
FALCON         CLEAR     30  11  46 CALM      30.04S
FORT CARSON    CLEAR     37  15  41 S7        30.02S
LIMON          CLEAR     27  17  66 N3        30.03R
MONUMENT HILL  CLEAR     32  12  43 S12       30.02R WCI  23
TRINIDAD       CLEAR     38  21  50 E3        30.05R
$$

COZ042>045-048>051-090-091-200100-
...NORTHEAST COLORADO...

CITY           SKY/WX    TMP DP  RH WIND       PRES   REMARKS
GREELEY ARPT   PTCLDY    34  14  44 NE8       30.00R WCI  27
AKRON          CLEAR     32  23  69 S9        30.02S WCI  24
BURLINGTON     CLEAR     33  26  75 S8        30.04F WCI  26
WRAY           CLEAR     35  27  74 SW8       30.02F WCI  28
STERLING       CLEAR     30  28  93 S5        30.02R FOG     WCI  25
HOLYOKE        CLEAR     34  30  86 W8        30.02R WCI  27
FORT MORGAN    CLEAR     31  25  78 CALM      30.02S
$$

COZ086-089-092>099-200100-
...SOUTHEAST COLORADO...

CITY           SKY/WX    TMP DP  RH WIND       PRES   REMARKS
PUEBLO         CLEAR     42  19  39 S5        30.02S
LA JUNTA       CLEAR     38  28  67 S6        30.05S
LAMAR          CLEAR     39  28  64 CALM      30.05S
SPRINGFIELD      N/A     32  24  72 SE8       30.06S WCI  25
$$


USA.gov is the U.S. government's official web portal to all federal, state and local government web resources and services.